Location: Bishopstone
(51.0167°N, 1.9000°W)
Time: 22:30:35
(UTC+00:00)

Cosmos 2297 Rocket - Pass Details

Date: 16 September 2019
Orbit: 841 x 842 km, 71.0° (Epoch: 17 October)

Event Time Altitude Azimuth Distance (km) Brightness Sun altitude
Exits shadow 21:30:03 19° 221° (SW) 1,885 3.9 -27.4°
Maximum altitude 21:34:07 71° 302° (WNW) 894 2.4 -27.9°
Drops below altitude 10° 21:39:47 10° 27° (NNE) 2,472 4.8 -28.5°
Sets 21:42:16 0° 30° (NNE) 3,411 5.6 -28.7°
